Time,TemperatureF,DewpointF,PressureIn,WindDirection,WindDirectionDegrees,WindSpeedMPH,WindSpeedGustMPH,Humidity,HourlyPrecipIn,Conditions,Clouds,dailyrainin,SoftwareType,DateUTC
2013-01-10 00:00:00,54.8,54.0,29.95,SE,141,3.0,6.0,97,0.04,,---,0.00,VWS V14.01,2013-01-10 06:00:00,
2013-01-10 00:01:00,54.8,54.0,29.95,SE,140,3.0,3.0,97,0.01,,---,0.00,VWS V14.01,2013-01-10 06:01:00,
2013-01-10 00:04:00,54.8,54.0,29.95,SSE,147,4.0,5.0,97,0.01,,---,0.00,VWS V14.01,2013-01-10 06:04:00,
2013-01-10 00:07:00,54.8,54.0,29.95,SE,133,2.0,5.0,97,0.01,,---,0.00,VWS V14.01,2013-01-10 06:07:00,
2013-01-10 00:10:00,54.9,54.1,29.95,SE,140,2.0,5.0,97,0.01,,---,0.00,VWS V14.01,2013-01-10 06:10:00,
2013-01-10 00:13:00,54.9,54.1,29.95,SE,130,5.0,5.0,97,0.01,,---,0.00,VWS V14.01,2013-01-10 06:13:00,
2013-01-10 00:16:00,55.0,54.2,29.95,SE,145,3.0,6.0,97,0.01,,---,0.00,VWS V14.01,2013-01-10 06:16:00,
2013-01-10 00:19:00,54.9,54.1,29.95,SSE,157,2.0,6.0,97,0.01,,---,0.00,VWS V14.01,2013-01-10 06:19:00,
2013-01-10 00:22:00,54.9,54.1,29.95,SE,139,1.0,6.0,97,0.01,,---,0.00,VWS V14.01,2013-01-10 06:22:00,
2013-01-10 00:25:00,54.9,54.1,29.95,SE,141,2.0,6.0,97,0.01,,---,0.00,VWS V14.01,2013-01-10 06:25:00,
2013-01-10 00:28:00,54.8,54.0,29.95,SE,141,2.0,6.0,97,0.01,,---,0.00,VWS V14.01,2013-01-10 06:28:00,
2013-01-10 00:30:00,54.8,54.0,29.95,SE,141,3.0,6.0,97,0.01,,---,0.00,VWS V14.01,2013-01-10 06:30:00,
2013-01-10 00:31:00,54.8,54.0,29.95,SE,138,3.0,4.0,97,0.01,,---,0.00,VWS V14.01,2013-01-10 06:31:00,
2013-01-10 00:34:00,54.7,53.9,29.95,SE,145,2.0,4.0,97,0.01,,---,0.00,VWS V14.01,2013-01-10 06:34:00,
2013-01-10 00:37:00,54.7,53.9,29.94,SSE,159,0.0,4.0,97,0.01,,---,0.00,VWS V14.01,2013-01-10 06:37:00,
2013-01-10 00:40:00,54.6,53.8,29.94,SSE,159,0.0,4.0,97,0.01,,---,0.00,VWS V14.01,2013-01-10 06:40:00,
2013-01-10 00:43:00,54.5,53.7,29.93,SSE,162,1.0,4.0,97,0.01,,---,0.00,VWS V14.01,2013-01-10 06:43:00,
2013-01-10 00:46:00,54.4,53.6,29.93,SSE,164,0.0,4.0,97,0.01,,---,0.00,VWS V14.01,2013-01-10 06:46:00,
2013-01-10 00:49:00,54.1,53.0,29.93,SSE,164,0.0,4.0,96,0.01,,---,0.00,VWS V14.01,2013-01-10 06:49:00,
2013-01-10 00:53:00,53.9,52.8,29.93,SSE,164,0.0,4.0,96,0.01,,---,0.00,VWS V14.01,2013-01-10 06:53:00,
2013-01-10 00:56:00,53.8,52.7,29.93,SSE,164,0.0,4.0,96,0.01,,---,0.00,VWS V14.01,2013-01-10 06:56:00,
2013-01-10 00:59:00,53.7,52.6,29.93,SSE,164,2.0,4.0,96,0.01,,---,0.00,VWS V14.01,2013-01-10 06:59:00,
2013-01-10 01:00:00,53.6,52.5,29.93,SSE,164,1.0,4.0,96,0.01,,---,0.00,VWS V14.01,2013-01-10 07:00:00,
2013-01-10 01:02:00,53.5,52.4,29.93,SSE,164,0.0,2.0,96,0.00,,---,0.00,VWS V14.01,2013-01-10 07:02:00,
2013-01-10 01:05:00,53.4,52.3,29.93,SSE,164,0.0,2.0,96,0.00,,---,0.00,VWS V14.01,2013-01-10 07:05:00,
2013-01-10 01:08:00,53.2,52.1,29.93,SSE,164,0.0,2.0,96,0.00,,---,0.00,VWS V14.01,2013-01-10 07:08:00,
2013-01-10 01:11:00,53.0,51.9,29.94,SSE,164,0.0,2.0,96,0.00,,---,0.00,VWS V14.01,2013-01-10 07:11:00,
2013-01-10 01:14:00,52.7,51.6,29.93,SSE,164,0.0,2.0,96,0.00,,---,0.00,VWS V14.01,2013-01-10 07:14:00,
2013-01-10 01:17:00,52.4,51.3,29.93,SSE,164,0.0,2.0,96,0.01,,---,0.01,VWS V14.01,2013-01-10 07:17:00,
2013-01-10 01:20:00,52.2,51.1,29.92,SSE,164,0.0,2.0,96,0.01,,---,0.01,VWS V14.01,2013-01-10 07:20:00,
2013-01-10 01:23:00,52.1,51.0,29.92,SSE,164,0.0,2.0,96,0.01,,---,0.01,VWS V14.01,2013-01-10 07:23:00,
2013-01-10 01:26:00,52.0,50.9,29.92,SSE,164,0.0,2.0,96,0.01,,---,0.01,VWS V14.01,2013-01-10 07:26:00,
2013-01-10 01:29:00,51.7,50.6,29.93,SSE,164,0.0,2.0,96,0.01,,---,0.01,VWS V14.01,2013-01-10 07:29:00,
2013-01-10 01:30:00,51.7,50.6,29.93,SSE,164,0.0,2.0,96,0.01,,---,0.01,VWS V14.01,2013-01-10 07:30:00,
2013-01-10 01:32:00,51.7,50.6,29.93,SSE,164,0.0,1.0,96,0.01,,---,0.01,VWS V14.01,2013-01-10 07:32:00,
2013-01-10 01:35:00,51.7,50.6,29.92,SSE,164,0.0,1.0,96,0.01,,---,0.01,VWS V14.01,2013-01-10 07:35:00,
2013-01-10 01:38:00,51.8,51.0,29.92,SSE,164,0.0,1.0,97,0.01,,---,0.01,VWS V14.01,2013-01-10 07:38:00,
2013-01-10 01:41:00,51.9,51.1,29.93,SSE,164,1.0,1.0,97,0.01,,---,0.01,VWS V14.01,2013-01-10 07:41:00,
2013-01-10 01:44:00,51.9,51.1,29.93,SSE,164,1.0,1.0,97,0.01,,---,0.01,VWS V14.01,2013-01-10 07:44:00,
2013-01-10 01:47:00,51.7,50.9,29.93,SSE,164,0.0,2.0,97,0.01,,---,0.01,VWS V14.01,2013-01-10 07:47:00,
2013-01-10 01:50:00,51.6,50.8,29.93,SSE,164,2.0,2.0,97,0.01,,---,0.01,VWS V14.01,2013-01-10 07:50:00,
2013-01-10 01:53:00,51.6,50.8,29.93,South,180,2.0,3.0,97,0.01,,---,0.01,VWS V14.01,2013-01-10 07:53:00,
2013-01-10 01:56:00,51.9,51.1,29.93,SSW,208,2.0,4.0,97,0.01,,---,0.01,VWS V14.01,2013-01-10 07:56:00,
2013-01-10 01:59:00,52.2,51.4,29.94,SSW,198,5.0,6.0,97,0.01,,---,0.01,VWS V14.01,2013-01-10 07:59:00,
2013-01-10 02:00:00,52.2,51.4,29.94,SW,215,4.0,6.0,97,0.01,,---,0.01,VWS V14.01,2013-01-10 08:00:00,
2013-01-10 02:02:00,52.3,51.5,29.94,SSW,213,3.0,7.0,97,0.01,,---,0.01,VWS V14.01,2013-01-10 08:02:00,
2013-01-10 02:05:00,52.5,51.7,29.94,SSW,193,7.0,8.0,97,0.01,,---,0.01,VWS V14.01,2013-01-10 08:05:00,
2013-01-10 02:08:00,52.5,51.7,29.94,South,186,2.0,9.0,97,0.01,,---,0.01,VWS V14.01,2013-01-10 08:08:00,
2013-01-10 02:11:00,52.6,51.8,29.93,SSW,193,6.0,9.0,97,0.01,,---,0.01,VWS V14.01,2013-01-10 08:11:00,
2013-01-10 02:14:00,52.6,51.8,29.93,South,186,4.0,9.0,97,0.01,,---,0.01,VWS V14.01,2013-01-10 08:14:00,
2013-01-10 02:17:00,52.5,51.7,29.94,South,186,2.0,9.0,97,0.01,,---,0.01,VWS V14.01,2013-01-10 08:17:00,
2013-01-10 02:20:00,52.5,51.4,29.94,South,189,4.0,9.0,96,0.01,,---,0.01,VWS V14.01,2013-01-10 08:20:00,
2013-01-10 02:23:00,52.4,51.3,29.94,South,191,7.0,9.0,96,0.01,,---,0.01,VWS V14.01,2013-01-10 08:23:00,
2013-01-10 02:26:00,52.3,51.2,29.94,South,180,2.0,9.0,96,0.01,,---,0.01,VWS V14.01,2013-01-10 08:26:00,
2013-01-10 02:29:00,52.2,51.1,29.93,South,180,4.0,9.0,96,0.01,,---,0.01,VWS V14.01,2013-01-10 08:29:00,
2013-01-10 02:30:00,52.2,51.1,29.93,South,189,3.0,9.0,96,0.01,,---,0.01,VWS V14.01,2013-01-10 08:30:00,
2013-01-10 02:32:00,52.1,51.0,29.93,SSW,192,1.0,6.0,96,0.00,,---,0.01,VWS V14.01,2013-01-10 08:32:00,
2013-01-10 02:35:00,52.0,50.6,29.93,South,185,2.0,6.0,95,0.00,,---,0.01,VWS V14.01,2013-01-10 08:35:00,
2013-01-10 02:38:00,51.9,50.5,29.92,South,185,0.0,6.0,95,0.00,,---,0.01,VWS V14.01,2013-01-10 08:38:00,
2013-01-10 02:41:00,51.8,50.4,29.92,SSW,207,2.0,6.0,95,0.00,,---,0.01,VWS V14.01,2013-01-10 08:41:00,
2013-01-10 02:44:00,51.6,50.2,29.92,SSW,201,2.0,6.0,95,0.00,,---,0.01,VWS V14.01,2013-01-10 08:44:00,
2013-01-10 02:47:00,51.5,50.1,29.92,SSW,198,3.0,6.0,95,0.00,,---,0.01,VWS V14.01,2013-01-10 08:47:00,
2013-01-10 02:50:00,51.5,50.1,29.92,SSW,202,3.0,6.0,95,0.00,,---,0.01,VWS V14.01,2013-01-10 08:50:00,
2013-01-10 02:53:00,51.5,50.4,29.92,SW,215,6.0,8.0,96,0.00,,---,0.01,VWS V14.01,2013-01-10 08:53:00,
2013-01-10 02:56:00,51.5,50.1,29.91,SW,215,3.0,8.0,95,0.00,,---,0.01,VWS V14.01,2013-01-10 08:56:00,
2013-01-10 07:00:00,48.3,46.7,29.90,SSW,202,5.0,9.0,94,0.00,,---,0.01,VWS V14.01,2013-01-10 13:00:00,
2013-01-10 07:37:00,47.4,46.0,29.90,South,175,1.0,5.0,95,0.00,,---,0.01,VWS V14.01,2013-01-10 13:37:00,
2013-01-10 07:40:00,47.4,46.0,29.90,South,188,2.0,5.0,95,0.00,,---,0.01,VWS V14.01,2013-01-10 13:40:00,